Вернуться в каталог

CZ-4 DEB

АктивенSSO
NORAD 26158·DEBRIS·🇨🇳 China

Запущен Oct 14, 1999 с Taiyuan Satellite Launch Center

Loading…

Ближайшие Пролёты (ближайшие 24 часа)

TLE

СвежийSource: Space-Track

Эпоха: Sep 14, 2026, 23:11 UTC

1 26158U 99057AU  26257.96604877  .00001036  00000-0  35516-3 0  9994
2 26158  98.9509 329.5523 0177003  99.2787  78.8862 14.29953083366573

Отслеживайте CZ-4 DEB в реальном времени с AllMySat

Download on the App Store